Miscellaneous Hydrologic Data Report
Issued by NWS (Baltimore/Washington) Sterling, VA
1 of 54 available versions  First Miscellaneous Hydrologic Data Report Previous Miscellaneous Hydrologic Data Report  Print this page Close this Window


000
ASUS41 KLWX 221110
RWRLWX

REGIONAL WEATHER ROUNDUP
NATIONAL WEATHER SERVICE BALTIMORE MD/WASHINGTON DC
600 AM EST MON DEC 22 2014

Note: "FAIR" indicates few or no clouds below 12,000 feet
with no significant weather and/or obstructions to visibility.
 TC=TEMPERATURE CELSIUS

 * =Non NWS site. Station does not report precipitation (e.g. rain,
    snow, etc.), thunder, or fog.

DCZ001-MDZ009-015-VAZ040>042-051-053>054-221200-
WASHINGTON METRO

CITY           SKY/WX    TMP DP  RH WIND       PRES   REMARKS
WASHINGTON NAT CLOUDY    34  25  69 N3        30.32R
DULLES         CLOUDY    29  23  78 CALM      30.29R
ANDREWS AFB    CLOUDY    30  25  83 CALM      30.28R
FT BELVOIR     CLOUDY    33  26  75 N1        30.30R
QUANTICO       CLOUDY    34  27  75 E5        30.31R
COLLEGE PARK*  CLOUDY    32  27  80 N3        30.30R
LEESBURG*      CLOUDY    30  28  93 CALM      30.30R
MANASSAS*      CLOUDY    30  28  93 N3        30.30R
GAITHERSBURG*  CLOUDY    28  21  74 CALM      30.31S

$$

MDZ006>007-011-014-221200-
BALTIMORE METRO

CITY           SKY/WX    TMP DP  RH WIND       PRES   REMARKS
BWI AIRPORT    CLOUDY    29  23  78 NE3       30.28F
MD SCIENCE CTR   N/A     31  22  69 MISG      30.30R
MARTIN STATE   MOCLDY    27  25  93 CALM      30.32S
ANNAPOLIS      CLOUDY    32  26  78 CALM      30.30S
FORT MEADE*    CLOUDY    28  27  93 CALM      30.32S

$$

MDZ012-015-019>023-221200-
MARYLAND EASTERN SHORE

CITY           SKY/WX    TMP DP  RH WIND       PRES   REMARKS
OCEAN CITY     CLOUDY    37  33  85 NE7       30.27S
SALISBURY      CLOUDY    34  27  75 NE6       30.26F
BAY BRIDGE AP*   N/A     32  27  80 E5        30.30S
CAMBRIDGE*     CLOUDY    34  28  80 CALM      30.28R
EASTON*        PTCLDY    30  28  93 E5        30.32S

$$

MDZ017>025-221200-
SOUTHERN MARYLAND

CITY           SKY/WX    TMP DP  RH WIND       PRES   REMARKS
PATUXENT RIVER CLOUDY    35  27  72 E9        30.27S WCI  28
ST INIGOES     CLOUDY    36  27  69 NE7       30.26S
LEONARDTOWN*   CLOUDY    34  28  80 CALM      30.29S

$$

MDZ003>005-221200-
NORTH CENTRAL MARYLAND

CITY           SKY/WX    TMP DP  RH WIND       PRES   REMARKS
FREDERICK*     NOT AVBL
HAGERSTOWN APT MOCLDY    25  20  81 NW6       30.24F
WESTMINSTER*   PTCLDY    25  19  80 E3        30.26R

$$

MDZ501>502-221200-
WESTERN MARYLAND

CITY           SKY/WX    TMP DP  RH WIND       PRES   REMARKS
OAKLAND*       CLEAR     21 N/A N/A SE10      30.07R FOG     WCI  10
CUMBERLAND*    CLEAR     27  25  93 CALM      30.27S

$$

VAZ025>031-221200-
SHENANDOAH VALLEY

CITY           SKY/WX    TMP DP  RH WIND       PRES   REMARKS
WINCHESTER*    CLOUDY    30  23  74 CALM      30.25R
FRONT ROYAL*   CLOUDY    28  25  86 CALM      30.24R
LURAY*         CLOUDY    32  30  93 N3        30.22F
NEW MARKET*    CLOUDY    29  24  82 N5        30.22S
STAUNTON*      CLOUDY    32  27  81 CALM      30.22S
WAYNESBORO*    CLOUDY    32  25  76 SE5       30.19S

$$

WVZ021-048>050-054>055-221200-
EASTERN WEST VIRGINIA PANHANDLE

CITY           SKY/WX    TMP DP  RH WIND       PRES   REMARKS
MARTINSBURG    CLOUDY    27  21  78 CALM      30.26S
PETERSBURG*    CLOUDY    26  25  99 CALM      30.22S FOG

$$

VAZ036>039-050-221200-
CENTRAL FOOTHILLS

CITY           SKY/WX    TMP DP  RH WIND       PRES   REMARKS
CHARLOTTESVILL CLOUDY    32  26  78 NE9       30.24S WCI  24
CULPEPER*      CLOUDY    32  28  86 CALM      30.28F
ORANGE*        CLOUDY    32  30  93 N5        30.27F
GORDONSVILLE*  CLOUDY    32  27  82 NE7       30.24F
WARRENTON*     CLOUDY    32  31  94 CALM      30.28S

$$

VAZ055>057-221200-
NORTH AND CENTRAL PIEDMONT

CITY           SKY/WX    TMP DP  RH WIND       PRES   REMARKS
FREDERICKSBRG* CLOUDY    34  29  84 CALM      30.28S
STAFFORD*      CLOUDY    32  32 100 CALM      30.33S

$$

NCZ024-NYZ072-PAZ021-071-VAZ022-071-221200-
OTHER REGIONAL OBSERVATIONS

CITY           SKY/WX    TMP DP  RH WIND       PRES   REMARKS
NEW YORK CITY  CLOUDY    36  31  82 N5        30.33F
PHILADELPHIA   CLOUDY    30  23  75 N7        30.31F
PITTSBURGH     PTCLDY    24  21  88 E6        30.10S FOG
ROANOKE        CLOUDY    37  27  67 SE3       30.20S
RICHMOND       CLOUDY    37  28  70 NE6       30.24R
RALEIGH        LGT RAIN  36  33  89 NE12      30.14F WCI  28

$$

ANZ530>537-221200-
MARINE OBSERVATIONS

STATION/POSITION TIME  TEMP    WIND        PRES
                       AIR SEA DIR/SP/G
                 (UTC) (F)     (DEG/KT/KT) (MB)
THOMAS PT LIGHT  1100   33 40   80/  9/ 11 1026.7S
BALT KEY BRIDGE  1100   30      40/  6/  7 1025.7F
COVE POINT       1100   33      90/ 12/ 13 1025.1F
LEWISETTA        1100   38 41   70/ 11/ 13 1024.4F
SOLOMONS ISLAND  1100      42                N/A

$$

Close this window


The National Weather Service prepares its forecasts and other services in collaboration with agencies like the US Geological Survey, US Bureau of Reclamation, US Army Corps of Engineers, Natural Resource Conservation Service, National Park Service, ALERT Users Group, Bureau of Indian Affairs, and many state and local emergency managers across the country. For details, please click here.

National Weather Service
(Baltimore/Washington) Sterling Weather Forecast Office
43858 Weather Service Rd.
Sterling, VA 20166
(703) 996-2200
Page last modified: 22-Dec-2014 11:10 AM
Disclaimer
Credits
Glossary
Privacy Policy
About Us
Career Opportunities